Voltar ao catálogo

STARLINK-36369

AtivoComunicaçõesSSO
NORAD 67723·PAYLOAD·🇺🇸 United States

Lançado Feb 11, 2026 de Vandenberg Space Force Base

Loading…

Próximas Passagens (próximas 24 horas)

TLE

AtualizadoSource: CelesTrak SupGP

Época: Sep 15, 2026, 03:04 UTC

1 67723C 26026C   26258.12826389  .00005947  00000+0  18459-3 0  2585
2 67723  97.2851 309.9750 0001316  83.5426 267.6636 15.33440569    18

Acompanhe STARLINK-36369 em tempo real com AllMySat

Download on the App Store